Home   Weather   Stephenville   Past weeks

Flag for Canada Past Weather in Stephenville, Newfoundland and Labrador, Canada — Yesterday and Last 2 Weeks

Now
46 °F

Clear.


Feels Like: 41 °F
Forecast: 43 / 56 °F
Wind: 10 mph from North

Location: Stephenville

Current Time: Sep 29, 2016 at 9:34:09 PM

Latest Report: Sep 29, 2016 at 8:30 PM


Visibility: 15 mi

Pressure: 30.38 "Hg

Humidity: 82%

Dew Point: 41 °F

Location of StephenvilleLocation

Past Weather in Stephenville — Graph

°F

Stephenville Temperature Yesterday

Maximum temperature yesterday: 55 °F (at 2:30 PM)
Minimum temperature yesterday: 37 °F (at 1:30 AM)
Average temperature yesterday: 46 °F

High & Low Weather Summary for the Past Weeks

 TemperatureHumidityPressure
High63 °F (Sep 14, 8:30 PM)100% (Sep 15, 12:30 AM)30.55 "Hg (Sep 15, 12:30 AM)
Low37 °F (Sep 28, 1:30 AM)36% (Sep 29, 3:30 PM)29.63 "Hg (Sep 25, 2:30 PM)
Average52 °F83%30.00 "Hg
* Reported Sep 14 8:30 PM — Sep 29 8:30 PM, Stephenville, Weather by CustomWeather, © 2016

Note: Actual official high and low records may vary slightly from our data, if they occured in-between our weather recording intervals... More about our weather records

Advertising

Stephenville Weather History for the Previous 24 Hours

Scroll right to see more
 ConditionsComfort  
Time TempWeatherWind HumidityBarometerVisibility
8:30 PM
Thu, Sep 29
46 °FClear.10 mph82%30.38 "Hg15 mi
7:30 PM48 °FClear.12 mph62%30.37 "Hg15 mi
6:30 PM52 °FSunny.13 mph62%30.37 "Hg15 mi
5:30 PM55 °FSunny.12 mph59%30.37 "Hg15 mi
4:30 PM59 °FPassing clouds.12 mph36%30.37 "Hg15 mi
3:30 PM59 °FPassing clouds.14 mph36%30.38 "Hg15 mi
2:30 PM57 °FPassing clouds.9 mph44%30.38 "Hg15 mi
1:30 PM55 °FScattered clouds.15 mph59%30.40 "Hg15 mi
12:30 PM54 °FBroken clouds.10 mph54%30.44 "Hg15 mi
11:30 AM50 °FPartly sunny.9 mph62%30.46 "Hg15 mi
10:30 AM50 °FPartly sunny.8 mph67%30.47 "Hg15 mi
9:30 AM45 °FPartly sunny.5 mph87%30.48 "Hg15 mi
8:30 AM43 °FPartly sunny.3 mph87%30.48 "Hg15 mi
7:30 AM41 °FScattered clouds.9 mph87%30.48 "Hg15 mi
6:30 AM41 °FPassing clouds.7 mph87%30.49 "Hg15 mi
5:30 AM41 °FClear.5 mph87%30.50 "Hg15 mi
4:30 AM43 °FClear.8 mph87%30.50 "Hg15 mi
3:30 AM41 °FClear.6 mph87%30.51 "Hg15 mi
2:30 AM41 °FPassing clouds.3 mph87%30.53 "Hg15 mi
1:30 AM41 °FClear.5 mph87%30.52 "Hg15 mi
12:30 AM41 °FClear.5 mph87%30.53 "Hg15 mi
11:30 PM
Wed, Sep 28
43 °FPassing clouds.3 mph81%30.55 "Hg15 mi
10:30 PM45 °FPassing clouds.5 mph81%30.53 "Hg15 mi
9:30 PM45 °FPassing clouds.5 mph81%30.53 "Hg15 mi
Weather by CustomWeather, © 2016

See weather overviewHow to use our weather pages